Regional Weather Roundup
Issued by NWS Upton, NY

Current Version | Previous Version | Text Only | Print | Product List | Glossary Off
Versions: 1 2 3 4 5 6 7 8 9 10 11 12 13 14 15 16 17 18 19 20 21 22 23 24 25 26 27 28 29 30 31 32 33 34 35 36 37 38 39 40 41 42 43 44 45 46 47 48 49 50
000 ASUS41 KOKX 270105 RWROKX Regional Weather Roundup National Weather Service New York NY 900 PM EDT THU APR 26 2018 Note: "FAIR" indicates few or no clouds below 12,000 feet with no significant weather and/or obstructions to visibility. NYZ071-072-176-178-NJZ106-104-270200- New York City Metro Area CITY SKY/WX TMP DP RH WIND PRES REMARKS Central Park FAIR 65 39 38 W3 29.87R Bronx Bot Gard N/A 63 39 42 N3 29.88R Bronx Lehman C N/A 64 39 39 N5 N/A LaGuardia Arpt FAIR 65 39 38 NW8 29.84R Queens College N/A 64 41 42 W9 N/A Kennedy Intl FAIR 60 46 59 W10 29.86R Breezy Point N/A 55 N/A N/A W7 N/A Brooklyn Coll N/A 64 41 42 SW6 N/A Staten Island N/A 63 41 45 SW6 N/A Newark/Liberty FAIR 65 42 43 SW9 29.84R Teterboro FAIR 64 41 42 N6 29.83R $$ NYZ177-179-078>081-270200- Long Island New York CITY SKY/WX TMP DP RH WIND PRES REMARKS Jones Beach N/A 52 N/A N/A SW6 N/A Wantagh N/A 54 46 76 SW5 N/A Hempstead N/A 63 45 51 SW1 29.88R Matinecock Pt N/A 61 N/A N/A N9 N/A Farmingdale FAIR 57 45 64 S3 29.85R MacArthur/ISP FAIR 55 45 68 SW5 29.85R Stony Brook N/A 59 41 51 N2 N/A Shirley FAIR 55 46 71 SW3 29.86R Mt Sinai Harb N/A N/A N/A N/A W3 N/A Westhampton FAIR 50 43 77 S5 29.87R East Hampton FAIR 51 44 76 SW5 29.85R Southold N/A 52 45 76 S3 N/A Montauk N/A 53 45 74 VRB5 29.86R $$ NYZ052-065-067-270200- Hudson Valley CITY SKY/WX TMP DP RH WIND PRES REMARKS White Plains FAIR 57 38 48 N5 29.85R Larchmont Harb N/A 63 N/A N/A NW6 N/A Croton On Huds N/A 61 N/A N/A NW3 N/A Somers N/A 55 41 58 N3 N/A Brewster N/A 54 39 58 NW3 N/A Newburgh PTCLDY 54 43 66 VRB5 29.87R Montgomery FAIR 52 41 66 CALM 29.85R Otisville N/A 50 41 71 S1 N/A Warwick N/A 52 43 71 SE1 N/A Suffern N/A 57 39 51 E2 N/A Poughkeepsie FAIR 56 39 53 N3 29.86R Albany FAIR 47 38 71 NW6 29.89R $$ NJZ001-105-106-008-010-013-015-019>022-104-270200- New Jersey CITY SKY/WX TMP DP RH WIND PRES REMARKS Newark/Liberty FAIR 65 42 43 SW9 29.84R Teterboro FAIR 64 41 42 N6 29.83R Caldwell FAIR 61 41 47 S5 29.85R Somerville FAIR 55 45 68 CALM 29.84R Linden FAIR 64 40 42 W5 29.85R Perth Amboy N/A 63 N/A N/A SW7 N/A Sussex FAIR 52 43 71 CALM 29.86R Andover N/A 54 48 80 CALM 29.86R Trenton FAIR 63 42 46 W6 29.86R Millville FAIR 56 45 66 CALM 29.88R Atlantic City FAIR 58 48 69 SW6 29.88R Wrightstown FAIR 57 47 67 SW3 29.84 Toms River FAIR 51 46 83 CALM 29.88R Belmar FAIR 61 42 49 SW3 29.87R $$ PAZ047>061-062-071-270200- Eastern Pennsylvania CITY SKY/WX TMP DP RH WIND PRES REMARKS Philadelphia FAIR 63 40 42 NW5 29.87R Allentown FAIR 56 41 57 W6 29.86R Scranton FAIR 55 40 56 CALM 29.86R $$ CTZ002-004>006-009-010-012-RIZ004-006-007-MAZ004-011-015-270200- Southern New England In CT CITY SKY/WX TMP DP RH WIND PRES REMARKS Bradley Intl FAIR 55 41 59 W12 29.85R Hartford FAIR 58 41 53 NW10 29.86R Danbury FAIR 57 40 52 VRB5 29.87R Wtrbury/Oxford FAIR 56 40 55 NW5 29.87R Norwalk Harbor N/A 61 N/A N/A NW6 N/A Bridgeport FAIR 62 40 44 NW9 29.85R Meriden FAIR 59 40 49 NW9 29.86R New Haven FAIR 62 40 44 NW6 29.85R Chester FAIR 59 39 47 NW6 29.85R Groton FAIR 50 46 86 CALM 29.84R Willimantic FAIR 57 41 55 CALM 29.85R In RI CITY SKY/WX TMP DP RH WIND PRES REMARKS Providence FAIR 59 41 51 W13 29.83R Block Island FAIR 49 44 83 SW17 29.85R Westerly FAIR 53 45 74 SW5 29.84R In MA CITY SKY/WX TMP DP RH WIND PRES REMARKS Boston FAIR 57 40 52 W13G23 29.80R Worcester FAIR 50 39 66 W18G28 29.82R Westfield FAIR 54 42 64 NW5 29.84R Provincetown FAIR 51 43 74 W8 29.80R Nantucket FAIR 47 45 93 SW13 29.83R $$ ANZ330-335-338-340-345-350-353-355-270200- Coastal Marine Observations STATION/POSITION TIME SKY/WX TEMP WIND PRES VSBY WAVE AIR SEA DIR/SP/G HT/PER (UTC) (F) (DEG/KT/KT) (MB) (MI) (FT/S) NY Harb Entrance 0050 51 49 200/ 8/ 12 1011.0 5/11 20 S Fire Island 0050 49 45 230/ 12/ 14 1011.1 6/11 23 SSW Montauk P 0050 48 45 230/ 14/ 16 1011.1 7/11 15 E Barnegat Li 0030 48 N/A 5/10 Hudson Canyon 0050 48 45 210/ 12/ 12 1012.0 8/10 Kings Point 0048 62 50 50/ 6/ 6 1011.5 Execution Rocks NOT AVBL Western LI Sound NOT AVBL Central LI Sound 0030 50 240/ 6/ 8 N/A 1 Robbins Reef 0048 65 250/ 10/ 12 1011.1 $$ >>>>>>>>>>>>>>>>>>>>>>>>>>>> KEY <<<<<<<<<<<<<<<<<<<<<<<<<<< > < > SKY/WX - Sky Condition/Present Weather < > TMP - Temperature in Fahrenheit < > DP - Dew Point in Fahrenheit < > RH - Relative Humidity in Percent < > WIND - Direction (from) and Speed in MPH < > PRES - Mean Sea Level Pressure (inches of Hg) < > WCI - Wind Chill Index < > VSB - Visibility in Miles < > HX - Heat Index < > TC - Temperature in Celsius < > VRB - Varibale Wind Direction < > < >>>>>>>>>>>>>>>>>>>>>>>>>>>> KEY <<<<<<<<<<<<<<<<<<<<<<<<<<<

USA.gov is the U.S. government's official web portal to all federal, state and local government web resources and services.